Simultaneous Nadir Overpasses (SNOs) Predictions

Prediction of SNOs between LANDSAT-8 and METOP-B Satellite Orbit:

Table of predicted SNOs for the next 14.0 days since TLE Epoch: 3/27/2021
Index Date (LANDSAT-8) Time (LANDSAT-8) Lat,Lon (LANDSAT-8) SZA (LANDSAT-8 ) Date (METOP-B) Time (METOP-B) Lat,Lon (METOP-B) SZA (METOP-B ) Distance(km) Time Diff (sec)
1 03/28/2021 02:59:17 -81.13, -5.29 100.03 03/28/2021 02:58:42 -81.13, -5.14 100.02 2.67 35
2 03/28/2021 03:48:42 81.16, 162.81 80.03 03/28/2021 03:49:21 81.16, 162.87 80.05 1.06 39
3 03/30/2021 22:33:32 -81.12, 60.99 101.12 03/30/2021 22:33:04 -81.12, 60.84 101.14 2.54 28
4 03/30/2021 23:22:57 81.14,-130.94 78.93 03/30/2021 23:23:42 81.15,-130.77 78.98 3.18 45
5 04/02/2021 18:07:46 -81.13, 127.59 102.16 04/02/2021 18:07:24 -81.13, 127.55 102.17 0.59 22
6 04/02/2021 18:57:11 81.15, -64.37 77.90 04/02/2021 18:58:03 81.15, -64.43 77.91 0.96 52
7 04/05/2021 13:41:59 -81.14,-165.86 103.19 04/05/2021 13:41:43 -81.14,-165.75 103.18 1.82 16
8 04/05/2021 14:31:24 81.16, 2.16 76.86 04/05/2021 14:32:22 81.16, 2.27 76.90 1.98 58
9 04/08/2021 09:16:13 -81.14, -99.34 104.21 04/08/2021 09:16:04 -81.13, -99.45 104.23 1.95 9



Historial Predications of SNOs between LANDSAT-8 and METOP-B
